Wind_Speed
28 28 30 34 36 37 38 38 39 39 39 38 38 37 38 37 37 37 37 38 38 38 38 38 38 39 39 40 40 40 40 41 41 41 41 41 41 41 42 42 42 42 42 42
27 28 29 32 34 36 37 38 38 39 38 37 37 37 37 37 37 37 36 37 37 38 38 38 38 38 38 38 39 39 39 40 40 40 40 41 41 40 40 41 41 41 41 42
28 28 29 31 32 34 35 35 36 37 36 35 36 35 36 36 36 37 36 36 37 37 39 39 39 38 38 38 38 38 38 39 39 39 39 39 39 40 40 40 40 40 40 41
27 27 27 27 29 32 35 34 35 35 35 35 35 35 35 35 35 36 36 36 36 37 37 38 39 39 39 39 39 39 39 39 39 39 39 38 38 38 38 39 39 39 40 41
27 28 26 25 26 29 32 34 33 34 34 35 35 35 34 34 35 35 36 36 36 36 37 37 37 37 38 38 38 39 39 39 39 38 38 38 38 38 39 39 39 40 40 41
26 27 27 25 25 27 28 30 32 33 33 33 34 34 33 32 33 34 34 35 36 36 36 36 37 37 37 37 37 37 38 38 38 39 39 39 39 39 39 39 40 40 40 40
24 25 26 26 25 26 27 28 29 31 33 32 33 33 32 32 32 33 34 35 35 35 35 36 36 37 37 36 36 37 37 38 38 39 39 39 39 39 39 39 39 39 40 40
21 23 24 25 25 26 26 27 29 30 32 32 31 32 32 33 33 34 34 34 34 34 34 35 35 36 36 37 37 37 37 38 37 38 37 37 38 38 38 38 38 38 39 40
18 19 21 23 24 25 26 26 27 28 30 31 31 31 31 32 33 33 33 33 34 34 34 35 36 36 36 36 36 36 37 37 36 35 35 35 35 36 37 37 37 38 38 39
16 17 18 19 21 22 23 24 25 27 28 28 29 30 30 31 31 31 32 32 33 33 34 34 35 36 36 36 35 35 35 34 33 33 33 34 34 35 36 36 36 37 38 38
15 16 17 18 19 19 20 21 22 23 25 26 26 27 29 30 30 31 31 32 32 33 33 33 33 34 34 34 34 33 32 32 32 32 32 33 33 34 35 36 36 36 37 37
13 14 15 17 19 19 19 21 22 22 23 25 26 26 27 28 28 29 30 31 31 31 31 31 32 32 32 32 32 32 31 31 31 31 31 32 32 33 34 35 35 36 37 36
13 13 15 16 17 19 19 20 20 21 22 24 25 26 26 27 27 27 28 29 29 30 30 31 31 32 32 32 32 31 30 30 30 30 30 31 31 32 32 33 35 36 36 35
11 12 13 15 16 17 18 19 19 20 21 22 24 25 27 27 28 27 27 28 29 30 31 30 31 31 31 31 30 30 30 30 30 30 30 30 31 32 32 33 34 34 33 33
11 11 12 13 14 15 17 18 19 19 21 22 23 24 25 26 27 28 28 27 28 30 30 30 30 30 30 30 30 30 30 30 30 30 31 31 32 32 32 33 33 33 33 33
11 12 12 12 13 14 15 17 18 19 20 21 22 22 23 24 25 26 26 26 27 27 28 28 29 29 29 29 30 30 30 30 30 30 31 31 31 32 32 32 33 33 34 33
10 11 12 13 14 15 15 16 17 18 19 20 21 21 22 22 23 23 24 25 25 25 26 27 27 28 28 28 29 29 29 29 30 30 30 31 32 32 32 32 33 33 33 32
12 11 12 13 14 14 15 15 16 17 18 19 19 20 20 21 22 22 22 22 23 24 24 25 25 26 27 27 27 28 28 29 29 30 31 31 31 31 31 31 31 30 29 29
12 12 13 13 14 14 15 15 15 16 16 17 18 18 19 20 21 21 22 22 22 23 23 23 24 24 25 26 26 27 27 28 29 29 30 30 30 30 30 29 28 27 26 25
13 13 13 13 13 14 15 15 16 16 16 17 17 18 18 19 20 20 21 21 22 22 22 23 23 23 24 24 25 25 26 26 27 27 27 27 27 27 27 27 25 24 23 23
13 13 13 13 14 14 15 16 17 17 18 18 17 17 18 18 18 19 19 19 20 21 21 21 22 22 23 24 24 24 25 25 26 26 26 26 25 25 25 24 23 22 21 20
13 13 13 14 14 15 16 17 17 18 18 18 17 17 17 17 18 18 18 19 19 20 21 21 22 22 23 23 23 24 24 24 25 25 25 24 24 24 23 22 21 19 19 18
14 14 14 15 15 15 15 16 16 16 17 17 17 17 17 17 18 18 18 18 19 19 20 21 21 21 22 22 22 23 23 24 24 23 23 23 22 22 20 19 19 18 17 16
15 15 15 15 15 15 15 15 16 16 16 17 17 16 16 17 17 17 18 18 18 18 19 19 20 20 20 20 20 21 21 21 21 21 21 20 19 18 17 17 16 15 14 13
16 15 15 15 15 15 15 15 15 16 16 16 16 15 15 15 16 16 16 16 17 17 17 18 18 18 18 18 18 18 18 17 17 16 16 15 15 15 15 14 13 12 11 11
16 16 15 15 15 15 14 15 15 15 15 15 15 15 15 15 15 15 16 16 16 16 16 16 16 16 16 15 15 15 14 13 13 12 12 12 12 12 11 11 11 10 10 9
15 15 15 15 15 14 14 14 14 14 14 14 14 15 15 14 14 14 14 14 14 14 14 14 14 14 15 14 14 13 13 12 12 12 12 11 11 11 10 10 10 9 8 8
Wind_Direction
235 233 233 232 230 229 230 233 235 235 236 236 236 235 235 234 233 233 234 235 235 236 236 237 239 242 244 247 249 251 253 255 258 260 262 264 266 268 269 270 272 274 275 275
234 233 234 233 231 229 229 232 235 234 234 234 235 234 234 234 234 233 233 234 235 236 236 237 239 241 244 247 249 252 253 255 257 260 262 264 266 267 269 272 274 275 275 277
235 235 234 231 230 230 230 232 234 233 233 232 232 232 233 233 235 235 234 234 235 236 236 237 239 241 244 246 249 252 253 256 257 260 262 265 267 269 270 272 274 275 276 278
236 235 235 230 229 231 232 232 233 233 232 231 230 231 231 232 233 235 235 235 235 236 237 238 240 242 245 247 249 252 254 257 258 261 263 265 267 269 271 272 273 275 277 279
237 237 236 231 230 231 232 232 232 231 231 230 229 230 231 232 234 235 235 235 236 238 238 239 241 243 245 248 249 251 254 256 258 262 264 265 266 268 269 271 273 275 278 280
237 239 239 238 236 236 236 234 231 231 230 232 231 232 232 233 234 234 234 235 236 237 240 241 243 245 247 249 250 253 255 257 260 262 264 266 266 267 269 271 274 276 278 280
238 240 239 238 238 238 239 237 234 234 233 233 235 235 234 234 234 235 235 236 237 239 241 243 245 247 248 250 252 254 257 259 261 264 265 265 266 267 269 272 275 277 278 281
241 242 242 239 239 239 241 239 237 237 236 235 236 236 235 236 237 238 239 239 239 241 243 245 247 249 250 251 253 256 258 260 262 264 264 265 266 267 270 272 276 278 280 283
244 243 243 242 241 242 241 240 238 238 237 235 235 235 235 235 236 238 239 240 241 243 245 247 248 250 251 253 255 257 259 261 262 263 263 265 266 268 270 273 277 279 282 284
244 240 238 238 238 239 238 238 237 236 235 233 233 233 234 235 236 238 239 241 243 245 247 249 250 251 252 253 256 259 261 262 263 265 266 267 268 269 271 273 277 280 283 286
242 240 238 235 235 235 233 233 235 236 236 235 235 235 234 236 237 238 239 241 244 246 247 249 249 251 252 254 257 259 260 262 264 266 268 269 270 272 273 275 278 281 284 286
240 242 241 238 236 234 233 233 234 235 237 236 236 237 237 238 238 239 240 242 244 245 247 249 250 250 252 254 256 257 259 261 263 267 269 271 271 273 275 276 278 281 284 286
245 243 241 240 239 237 237 238 237 237 237 237 237 237 237 238 239 242 244 244 246 247 249 250 251 251 252 253 255 255 257 260 263 267 269 271 272 274 276 278 281 284 286 287
246 243 241 239 239 239 239 240 240 239 239 239 239 238 238 239 240 242 246 247 247 248 249 249 250 251 252 252 253 255 258 261 265 267 270 272 274 276 278 280 282 284 286 287
246 244 243 242 241 239 239 239 241 241 241 242 242 241 240 241 243 246 248 248 248 248 249 250 252 251 251 252 253 255 259 263 266 269 271 274 276 278 280 281 282 283 284 286
249 248 248 247 244 242 240 239 241 240 240 241 241 241 241 243 245 247 247 248 248 248 249 251 252 252 253 254 256 259 262 265 268 271 272 275 276 279 281 282 283 283 283 284
257 255 252 251 249 246 245 243 243 243 242 241 240 241 242 243 245 246 247 247 248 250 250 250 251 252 254 257 258 260 263 267 269 271 272 275 277 280 282 283 283 283 284 283
258 259 259 257 253 250 249 248 247 247 246 245 244 244 244 245 247 248 248 249 251 252 251 251 253 254 256 258 259 261 264 268 270 271 273 275 278 280 281 283 283 282 281 281
258 261 263 261 256 254 253 251 248 247 247 247 246 246 247 247 247 248 249 251 254 255 253 254 256 256 257 258 259 263 266 268 270 272 274 275 277 279 280 282 281 280 279 279
259 261 262 260 259 256 254 252 250 250 249 248 248 248 248 248 248 249 251 252 253 253 254 256 258 259 259 260 262 264 266 268 270 272 274 275 277 278 279 279 279 278 277 279
262 263 263 263 262 260 257 254 253 253 251 249 250 250 249 249 249 249 251 251 252 254 255 257 259 260 261 262 264 266 267 268 270 271 272 274 276 277 278 277 276 275 276 278
263 264 265 265 265 264 261 257 254 252 250 249 249 249 248 249 249 249 250 251 254 257 259 260 262 262 262 263 265 266 267 269 270 271 272 274 274 276 276 274 272 271 272 274
267 267 267 267 266 264 261 258 254 251 249 248 247 247 248 248 249 250 252 254 257 260 261 262 262 263 263 264 265 267 268 268 269 269 271 272 273 273 272 268 267 268 269 270
269 270 270 267 264 262 259 255 253 251 249 248 247 247 248 248 250 252 253 255 257 259 261 262 263 264 264 265 267 268 268 268 268 268 269 269 269 268 266 264 264 265 266 268
268 269 268 265 262 260 257 254 252 249 247 246 246 246 245 246 248 250 254 256 258 260 261 263 264 265 265 265 267 268 268 268 267 266 265 264 264 264 262 259 257 259 261 262
267 267 266 265 263 259 256 253 250 247 244 242 243 243 244 247 250 252 255 257 260 263 264 264 263 263 263 262 262 263 263 262 261 260 259 259 260 260 256 252 252 253 254 254
267 266 266 265 261 257 255 252 247 243 241 242 244 245 248 250 253 254 255 257 260 263 263 262 260 260 260 259 258 259 259 257 256 256 256 256 257 255 251 248 248 251 249 251
Height
5513 5516 5519 5523 5528 5533 5537 5542 5547 5554 5559 5566 5570 5575 5580 5585 5590 5595 5600 5604 5609 5613 5617 5621 5624 5627 5630 5633 5635 5638 5639 5641 5642 5643 5643 5644 5643 5643 5642 5641 5641 5640 5639 5637
5507 5510 5513 5516 5521 5525 5530 5535 5539 5545 5551 5557 5561 5566 5571 5576 5581 5586 5591 5595 5600 5604 5608 5612 5615 5618 5621 5623 5626 5628 5629 5631 5632 5633 5633 5633 5633 5633 5632 5632 5631 5630 5629 5627
5501 5504 5506 5510 5515 5519 5523 5528 5532 5537 5545 5549 5553 5558 5563 5568 5573 5577 5582 5587 5591 5595 5599 5602 5606 5609 5612 5614 5616 5618 5620 5622 5623 5623 5624 5624 5623 5623 5623 5622 5621 5620 5619 5617
5495 5499 5501 5508 5509 5512 5516 5521 5526 5530 5536 5541 5546 5550 5555 5560 5564 5569 5573 5578 5582 5586 5590 5593 5596 5599 5602 5605 5607 5609 5611 5612 5613 5614 5614 5614 5614 5614 5614 5613 5612 5611 5609 5608
5491 5493 5496 5501 5503 5506 5510 5515 5519 5523 5528 5533 5538 5542 5548 5552 5556 5560 5564 5569 5573 5577 5581 5584 5587 5590 5593 5596 5598 5600 5602 5603 5604 5604 5605 5605 5605 5605 5605 5604 5603 5602 5601 5599
5486 5488 5491 5497 5499 5501 5505 5509 5513 5517 5521 5526 5530 5535 5541 5544 5548 5552 5556 5560 5564 5568 5572 5575 5578 5581 5584 5587 5589 5591 5592 5593 5594 5595 5595 5596 5596 5596 5595 5595 5594 5593 5591 5589
5481 5483 5486 5491 5493 5496 5501 5505 5508 5511 5515 5520 5524 5529 5533 5536 5540 5544 5548 5552 5556 5560 5563 5566 5569 5572 5575 5577 5579 5581 5583 5584 5585 5585 5586 5586 5586 5586 5586 5586 5585 5584 5582 5580
5476 5479 5485 5485 5488 5492 5494 5497 5501 5505 5508 5513 5517 5521 5525 5529 5533 5537 5540 5544 5548 5551 5554 5557 5560 5563 5566 5568 5570 5572 5573 5574 5575 5575 5576 5576 5577 5577 5577 5577 5576 5575 5573 5571
5474 5477 5478 5480 5482 5485 5488 5491 5495 5499 5502 5506 5510 5514 5517 5521 5525 5529 5532 5536 5539 5543 5546 5549 5551 5554 5556 5559 5561 5562 5564 5565 5565 5566 5566 5567 5568 5568 5568 5567 5567 5565 5564 5562
5470 5472 5473 5475 5477 5480 5483 5486 5489 5492 5496 5499 5503 5507 5511 5514 5518 5521 5525 5528 5531 5535 5537 5540 5543 5545 5548 5550 5552 5553 5555 5556 5556 5557 5558 5558 5559 5559 5559 5558 5557 5556 5555 5553
5466 5468 5469 5471 5473 5475 5478 5481 5484 5486 5490 5493 5497 5500 5504 5507 5510 5514 5517 5520 5523 5526 5529 5532 5534 5537 5539 5541 5543 5545 5546 5547 5548 5549 5549 5549 5550 5550 5549 5549 5548 5547 5545 5543
5463 5464 5465 5467 5469 5471 5473 5476 5479 5482 5485 5487 5490 5494 5497 5500 5503 5506 5509 5512 5515 5518 5521 5523 5526 5528 5531 5533 5535 5536 5538 5539 5540 5540 5541 5541 5541 5541 5540 5540 5539 5537 5535 5534
5459 5460 5462 5463 5465 5467 5469 5472 5474 5476 5479 5482 5485 5488 5490 5493 5496 5499 5502 5505 5507 5510 5513 5515 5518 5520 5522 5524 5526 5528 5529 5530 5531 5532 5532 5532 5532 5532 5531 5530 5529 5528 5526 5524
5456 5457 5459 5460 5462 5463 5465 5467 5469 5471 5473 5476 5478 5481 5484 5487 5489 5492 5494 5497 5499 5502 5504 5507 5509 5512 5513 5515 5517 5519 5520 5522 5523 5523 5524 5524 5523 5523 5522 5521 5520 5518 5517 5515
5454 5455 5456 5457 5458 5459 5461 5463 5465 5466 5468 5471 5473 5475 5477 5480 5482 5485 5487 5489 5492 5494 5496 5499 5501 5503 5505 5507 5509 5510 5512 5513 5514 5514 5515 5515 5514 5514 5513 5512 5511 5509 5508 5506
5451 5452 5453 5453 5455 5456 5457 5459 5460 5462 5463 5465 5467 5469 5471 5473 5475 5478 5480 5482 5484 5486 5488 5491 5493 5495 5497 5499 5500 5502 5503 5504 5505 5505 5506 5505 5505 5504 5503 5502 5501 5500 5498 5497
5449 5449 5449 5450 5451 5452 5453 5454 5456 5457 5458 5460 5462 5463 5465 5467 5469 5471 5473 5475 5477 5479 5481 5483 5485 5487 5489 5490 5492 5493 5495 5495 5496 5496 5496 5496 5496 5495 5494 5493 5491 5490 5489 5487
5445 5446 5446 5447 5447 5448 5449 5450 5451 5452 5453 5455 5456 5458 5460 5461 5463 5465 5467 5468 5470 5472 5474 5476 5478 5479 5481 5482 5484 5485 5486 5486 5487 5487 5487 5487 5486 5486 5485 5483 5482 5481 5479 5478
5442 5442 5442 5443 5443 5444 5445 5446 5447 5448 5449 5450 5451 5453 5454 5456 5457 5459 5461 5463 5464 5466 5467 5469 5470 5472 5473 5474 5475 5476 5477 5478 5478 5478 5478 5478 5477 5476 5475 5474 5473 5472 5471 5471
5438 5439 5439 5439 5439 5440 5440 5441 5442 5443 5444 5445 5446 5448 5449 5450 5452 5453 5455 5456 5458 5459 5460 5462 5463 5464 5465 5467 5467 5468 5469 5469 5469 5469 5469 5469 5468 5468 5467 5466 5466 5465 5464 5464
5434 5434 5435 5435 5435 5435 5435 5436 5437 5438 5439 5440 5441 5443 5444 5445 5446 5447 5449 5450 5452 5453 5454 5455 5456 5457 5458 5459 5460 5460 5461 5461 5461 5461 5461 5460 5460 5460 5459 5459 5458 5458 5458 5457
5430 5430 5430 5430 5430 5430 5431 5431 5432 5433 5433 5435 5436 5437 5438 5440 5441 5442 5443 5445 5446 5447 5448 5448 5449 5450 5451 5451 5452 5452 5453 5453 5453 5453 5453 5453 5453 5452 5452 5452 5452 5452 5452 5452
5425 5425 5425 5425 5425 5425 5426 5426 5427 5427 5428 5429 5430 5432 5433 5434 5435 5437 5438 5439 5440 5441 5441 5442 5443 5443 5444 5444 5445 5445 5445 5445 5445 5445 5445 5445 5445 5445 5445 5445 5446 5446 5446 5447
5420 5420 5420 5420 5420 5421 5421 5421 5421 5422 5423 5424 5425 5426 5428 5429 5430 5431 5432 5433 5434 5434 5435 5436 5436 5437 5437 5437 5438 5438 5437 5437 5438 5438 5438 5438 5439 5439 5439 5440 5440 5441 5441 5442
5415 5415 5415 5415 5415 5415 5416 5416 5416 5417 5418 5419 5420 5421 5422 5423 5425 5426 5426 5427 5428 5429 5429 5429 5430 5430 5431 5431 5431 5431 5431 5431 5431 5432 5432 5433 5433 5434 5434 5435 5436 5436 5437 5437
5410 5410 5410 5410 5410 5410 5410 5411 5411 5412 5413 5414 5415 5416 5417 5418 5419 5420 5421 5422 5422 5423 5423 5424 5424 5424 5425 5425 5426 5426 5426 5427 5427 5427 5428 5428 5429 5430 5430 5431 5432 5433 5433 5434
5405 5405 5405 5405 5405 5405 5406 5406 5407 5408 5409 5410 5411 5412 5413 5414 5414 5415 5416 5417 5417 5418 5418 5419 5419 5420 5420 5421 5421 5422 5422 5423 5423 5424 5424 5425 5426 5426 5427 5428 5429 5430 5430 5431